Date String (YYYY-MM-DD hh:mm:ss) UTC,Instrument flags,Ambient pressure (hPa),Sample flow (lpm),Bypass flow (lpm),Sample temperature (°C),Ambient temperature (°C),ASC tube jacket temperature (°C),LED temperature (°C),Box temperature (°C),Sample RH (%),Span deviation,Mass concentration (μg/m³),Mass concentration (μg/m³),Mass concentration (μg/m³)
DateTimeUTC,F1_M11,P_M11,Q1_M11,Q2_M11,T1_M11,T2_M11,T3_M11,T4_M11,T5_M11,U1_M11,ZSPAN_M11,X0_M11,X2_M11,X1_M11
2021-10-20 14:00:00,,0830.8,4.99,0.00,22.9,22.2,00.0,31.9,24.8,22.4,0000.0,0007.07,0005.01,0004.79
2021-10-20 14:01:00,,0830.8,5.01,0.00,23.0,22.2,00.0,32.0,24.8,22.3,0000.0,0007.28,0005.03,0004.80
2021-10-20 14:02:00,,0830.7,4.99,0.00,23.0,22.2,00.0,32.0,24.8,22.1,0000.0,0007.42,0005.02,0004.77
2021-10-20 14:03:00,,0830.8,5.01,0.00,23.0,22.2,00.0,32.0,24.9,21.9,0000.0,0007.39,0004.92,0004.67
2021-10-20 14:04:00,,0830.7,4.99,0.00,23.0,22.3,00.0,32.0,24.9,21.8,0000.0,0007.29,0004.83,0004.57
2021-10-20 14:05:00,,0830.8,5.00,0.00,23.0,22.3,00.0,32.0,24.9,21.7,0000.0,0007.13,0004.73,0004.48
2021-10-20 14:06:00,,0830.8,5.00,0.00,23.0,22.3,00.0,32.0,24.9,21.8,0000.0,0006.98,0004.67,0004.40
2021-10-20 14:07:00,,0830.9,4.99,0.00,23.0,22.3,00.0,32.0,24.9,21.7,0000.0,0006.87,0004.59,0004.33
2021-10-20 14:08:00,,0830.9,5.01,0.00,23.0,22.3,00.0,32.1,24.9,21.6,0000.0,0006.68,0004.50,0004.25
2021-10-20 14:09:00,,0830.9,4.99,0.00,23.0,22.3,00.0,32.1,24.9,21.7,0000.0,0006.69,0004.45,0004.18
2021-10-20 14:10:00,,0830.8,5.00,0.00,23.0,22.3,00.0,32.1,24.9,21.6,0000.0,0006.54,0004.36,0004.08
2021-10-20 14:11:00,,0830.9,5.00,0.00,23.0,22.2,00.0,32.1,24.9,21.6,0000.0,0006.30,0004.26,0003.98
2021-10-20 14:12:00,,0830.9,5.01,0.00,23.0,22.2,00.0,32.1,24.9,21.5,0000.0,0005.93,0004.12,0003.86
2021-10-20 14:13:00,,0830.9,4.99,0.00,23.0,22.2,00.0,32.1,24.8,21.6,0000.0,0005.74,0004.01,0003.76
2021-10-20 14:14:00,,0830.9,4.99,0.00,23.0,22.2,00.0,32.1,24.8,21.5,0000.0,0005.54,0003.96,0003.71
2021-10-20 14:15:00,,0830.9,4.99,0.00,23.0,22.2,00.0,32.1,24.8,21.5,0000.0,0005.41,0003.92,0003.69
2021-10-20 14:16:00,,0830.9,5.01,0.00,22.9,22.2,00.0,32.1,24.8,21.6,0000.0,0005.49,0003.93,0003.67
2021-10-20 14:17:00,,0830.9,5.00,0.00,22.9,22.2,00.0,32.1,24.8,21.7,0000.0,0005.31,0003.88,0003.64
2021-10-20 14:18:00,,0831.0,4.99,0.00,22.9,22.2,00.0,32.0,24.8,21.6,0000.0,0005.20,0003.83,0003.60
2021-10-20 14:19:00,,0831.0,5.01,0.00,22.9,22.2,00.0,32.1,24.8,21.5,0000.0,0005.28,0003.80,0003.57
2021-10-20 14:20:00,,0831.0,5.00,0.00,22.9,22.2,00.0,32.1,24.7,21.5,0000.0,0005.22,0003.75,0003.53
2021-10-20 14:21:00,,0831.0,4.99,0.00,22.9,22.2,00.0,32.1,24.8,21.6,0000.0,0005.13,0003.72,0003.52
2021-10-20 14:22:00,,0831.0,5.01,0.00,22.9,22.2,00.0,32.0,24.8,21.5,0000.0,0004.97,0003.66,0003.48
2021-10-20 14:23:00,,0830.9,4.99,0.00,22.9,22.2,00.0,32.0,24.8,21.4,0000.0,0004.89,0003.63,0003.45
2021-10-20 14:24:00,,0831.0,5.00,0.00,22.9,22.2,00.0,32.0,24.8,21.5,0000.0,0004.68,0003.60,0003.43
2021-10-20 14:25:00,,0831.0,5.00,0.00,22.9,22.2,00.0,32.0,24.8,21.4,0000.0,0004.68,0003.59,0003.42
2021-10-20 14:26:00,,0831.0,5.02,0.00,22.9,22.2,00.0,32.0,24.7,21.4,0000.0,0004.79,0003.59,0003.40
2021-10-20 14:27:00,,0831.0,4.99,0.00,22.9,22.1,00.0,32.0,24.7,21.4,0000.0,0004.84,0003.56,0003.37
2021-10-20 14:28:00,,0831.0,5.00,0.00,22.9,22.2,00.0,32.0,24.7,21.4,0000.0,0004.78,0003.52,0003.34
2021-10-20 14:29:00,,0831.0,5.00,0.00,22.9,22.1,00.0,32.0,24.7,21.4,0000.0,0004.80,0003.53,0003.34
2021-10-20 14:30:00,,0831.0,5.00,0.00,22.9,22.1,00.0,32.0,24.7,21.4,0000.0,0004.69,0003.53,0003.34
2021-10-20 14:31:00,,0831.1,5.02,0.00,22.9,22.1,00.0,32.0,24.7,21.4,0000.0,0005.59,0003.50,0003.32
2021-10-20 14:32:00,,0831.1,4.99,0.00,22.9,22.2,00.0,32.0,24.7,21.4,0000.0,0005.72,0003.48,0003.29
2021-10-20 14:33:00,,0831.2,5.00,0.00,22.9,22.2,00.0,32.0,24.8,21.2,0000.0,0006.10,0003.48,0003.28
2021-10-20 14:34:00,,0831.2,5.00,0.00,22.9,22.2,00.0,32.0,24.8,21.0,0000.0,0006.42,0003.48,0003.25
2021-10-20 14:35:00,,0831.1,4.99,0.00,22.9,22.2,00.0,32.0,24.8,21.2,0000.0,0006.37,0003.46,0003.23
2021-10-20 14:36:00,,0831.2,5.00,0.00,22.9,22.2,00.0,32.0,24.8,21.0,0000.0,0006.25,0003.43,0003.21
2021-10-20 14:37:00,,0831.2,4.99,0.00,22.9,22.2,00.0,32.0,24.8,20.9,0000.0,0006.27,0003.40,0003.19
2021-10-20 14:38:00,,0831.1,5.00,0.00,22.9,22.2,00.0,32.0,24.8,20.8,0000.0,0006.35,0003.38,0003.17
2021-10-20 14:39:00,,0831.2,4.99,0.00,22.9,22.2,00.0,32.0,24.8,20.7,0000.0,0006.37,0003.38,0003.15
2021-10-20 14:40:00,,0831.2,5.01,0.00,22.9,22.2,00.0,32.0,24.8,20.7,0000.0,0006.34,0003.36,0003.14
2021-10-20 14:41:00,,0831.2,4.99,0.00,22.9,22.2,00.0,32.0,24.7,20.6,0000.0,0006.47,0003.36,0003.12
2021-10-20 14:42:00,,0831.2,5.00,0.00,22.9,22.2,00.0,32.0,24.8,20.6,0000.0,0005.46,0003.36,0003.11
2021-10-20 14:43:00,,0831.2,5.00,0.00,22.9,22.2,00.0,32.0,24.8,20.4,0000.0,0005.26,0003.36,0003.11
2021-10-20 14:44:00,,0831.2,5.01,0.00,22.9,22.2,00.0,32.0,24.7,20.3,0000.0,0004.85,0003.36,0003.13
2021-10-20 14:45:00,,0831.2,4.99,0.00,22.9,22.2,00.0,32.0,24.8,20.5,0000.0,0004.58,0003.38,0003.16
2021-10-20 14:46:00,,0831.2,5.02,0.00,22.9,22.2,00.0,32.0,24.8,20.5,0000.0,0004.54,0003.39,0003.18
2021-10-20 14:47:00,,0831.2,4.99,0.00,22.9,22.2,00.0,32.0,24.7,20.4,0000.0,0004.67,0003.43,0003.22
2021-10-20 14:48:00,,0831.2,5.01,0.00,22.9,22.2,00.0,32.0,24.7,20.4,0000.0,0004.65,0003.47,0003.27
2021-10-20 14:49:00,,0831.2,5.01,0.00,22.9,22.1,00.0,32.0,24.7,20.4,0000.0,0004.75,0003.52,0003.33
2021-10-20 14:50:00,,0831.2,4.99,0.00,22.9,22.1,00.0,32.0,24.7,20.5,0000.0,0004.97,0003.60,0003.40
2021-10-20 14:51:00,,0831.2,5.00,0.00,22.9,22.1,00.0,32.0,24.7,20.5,0000.0,0005.19,0003.68,0003.46
2021-10-20 14:52:00,,0831.2,5.00,0.00,22.9,22.1,00.0,32.0,24.7,20.5,0000.0,0005.27,0003.73,0003.53
2021-10-20 14:53:00,,0831.1,5.01,0.00,22.9,22.2,00.0,32.0,24.7,20.3,0000.0,0005.55,0003.76,0003.55
2021-10-20 14:54:00,,0831.2,4.99,0.00,22.9,22.2,00.0,32.0,24.7,20.6,0000.0,0005.85,0003.83,0003.60
2021-10-20 14:55:00,,0831.2,5.00,0.00,22.9,22.2,00.0,32.0,24.7,20.5,0000.0,0006.25,0003.87,0003.63
2021-10-20 14:56:00,,0831.2,5.00,0.00,22.9,22.1,00.0,32.0,24.7,20.4,0000.0,0006.56,0003.89,0003.63
2021-10-20 14:57:00,,0831.2,5.00,0.00,22.8,22.1,00.0,32.0,24.7,20.3,0000.0,0006.58,0003.87,0003.60
2021-10-20 14:58:00,,0831.2,5.01,0.00,22.8,22.1,00.0,32.0,24.6,20.3,0000.0,0006.48,0003.83,0003.55
2021-10-20 14:59:00,,0831.2,5.00,0.00,22.8,22.1,00.0,32.0,24.6,20.5,0000.0,0006.54,0003.82,0003.51
